RH
48 46 43 42 44 43 42 43 43 45 45 40 35 28 22 18 17 18 19 21 23 24 26 27 28 30 31 32 33 34 35 36 36 36 37 40 44 49 54 57 59 62
49 51 50 47 45 44 43 44 44 44 44 43 42 39 34 27 21 18 17 19 21 23 25 26 28 30 30 31 33 35 36 37 38 39 39 40 42 45 50 55 58 59
44 48 52 54 52 49 46 44 45 46 44 43 42 42 42 38 32 26 21 18 18 21 24 28 32 34 33 32 33 35 38 38 38 40 42 42 43 44 47 50 55 58
43 43 47 52 54 54 53 49 47 46 46 46 45 42 41 42 42 38 33 27 22 19 19 24 32 36 37 35 33 33 37 41 41 40 42 44 44 45 46 48 51 55
45 44 44 48 52 55 57 57 55 51 49 48 48 48 44 41 41 42 43 40 34 29 24 21 22 26 29 30 29 27 28 35 41 41 40 43 45 44 46 47 49 52
46 46 47 46 47 52 57 60 62 59 57 54 51 50 50 47 43 41 42 44 43 41 38 32 27 24 22 21 20 20 20 23 32 39 41 41 41 42 43 46 48 50
51 51 53 53 49 50 53 59 63 65 65 64 60 56 53 52 51 48 46 45 46 46 46 44 42 38 35 31 27 24 21 18 21 32 41 43 43 42 41 42 44 46
60 59 60 63 63 60 56 55 58 62 65 66 67 68 65 59 55 56 55 51 49 49 49 49 48 47 46 45 45 42 36 29 24 24 31 40 46 48 48 46 45 45
65 65 66 70 74 75 70 62 57 58 63 66 66 69 73 73 68 64 62 61 58 55 53 53 53 53 51 48 49 51 50 48 43 36 30 30 32 34 36 38 41 45
63 64 68 73 75 77 76 73 66 58 57 64 69 69 69 73 77 75 72 69 68 67 64 60 57 58 61 60 55 51 52 53 53 52 49 43 39 34 29 26 26 31
67 67 72 77 78 77 73 70 69 62 54 53 61 67 67 66 68 73 79 79 77 76 77 76 71 65 67 74 76 69 62 58 56 55 57 58 58 55 50 43 35 34
74 72 77 78 74 75 74 68 65 64 58 50 48 51 55 59 60 61 68 78 83 82 81 85 86 78 68 73 86 92 86 79 73 68 65 65 64 63 62 59 55 54
72 71 74 72 67 68 73 76 78 78 76 68 58 52 50 51 55 58 57 61 72 80 79 79 82 80 71 67 76 91 99 100 93 85 81 78 75 74 72 67 66 66
60 64 66 61 60 62 64 72 85 95 100 93 80 71 66 60 55 57 59 54 54 61 67 70 70 69 66 63 65 77 90 99 101 97 94 90 85 85 84 79 76 74
51 55 62 62 63 68 71 77 89 101 106 104 96 85 77 74 68 64 67 65 55 49 50 55 60 59 57 55 59 67 71 77 85 87 87 93 94 92 92 90 85 80
57 52 61 72 80 87 92 96 100 104 104 102 104 99 86 80 80 82 87 88 80 67 56 52 51 50 50 48 51 61 62 59 62 62 60 72 86 89 93 97 96 91
77 74 73 77 83 85 85 86 85 93 103 103 101 102 100 92 82 83 94 100 98 95 89 81 72 62 59 58 55 56 55 53 62 66 56 54 61 67 74 83 90 94
83 91 92 89 83 72 63 60 59 63 81 98 101 99 103 101 84 73 83 94 98 102 105 104 97 85 81 84 82 77 67 58 62 66 59 54 55 55 56 59 65 74
59 74 91 95 88 79 69 60 53 46 52 75 97 100 100 103 92 77 82 96 100 100 102 103 97 85 78 80 86 92 92 85 79 69 59 55 56 55 55 53 54 59
42 64 89 87 72 75 86 81 65 50 45 60 87 99 97 100 102 91 82 87 96 98 100 102 94 79 70 67 67 72 79 86 94 92 81 70 63 59 59 59 61 65
59 76 94 91 75 77 94 99 84 61 48 55 79 98 94 89 100 98 70 52 68 90 100 101 93 78 70 67 62 63 71 80 90 98 98 89 79 72 67 67 74 79
89 90 95 100 99 95 97 104 100 84 63 49 56 81 93 90 93 94 68 39 43 70 90 98 94 83 76 70 57 56 75 94 97 98 102 99 91 83 76 76 87 95
99 95 95 101 104 99 96 100 103 102 93 70 51 59 79 89 87 84 77 63 51 54 71 85 86 84 88 87 71 51 54 73 84 89 97 102 97 90 85 85 96 104
100 96 98 103 101 96 96 99 101 103 105 95 77 67 71 82 85 78 76 77 67 57 63 72 71 74 84 94 96 78 55 49 57 68 85 99 101 98 96 97 102 102
103 101 100 102 101 95 94 100 102 101 102 100 96 91 86 87 92 89 82 83 77 68 70 74 69 69 74 80 94 101 85 57 41 48 71 93 101 102 100 100 102 102
102 102 100 101 100 95 95 100 102 101 101 101 99 101 101 98 99 102 100 97 88 75 74 77 74 75 80 76 75 91 101 79 44 36 58 81 91 99 103 100 100 104
Wind_Speed
14 15 16 17 18 19 20 21 22 24 25 26 26 26 25 24 24 23 23 23 24 25 26 27 27 27 27 26 26 25 24 23 23 23 24 24 24 24 24 24 24 24
12 12 13 14 15 16 17 18 19 20 22 23 24 25 25 24 23 22 21 21 21 21 22 23 24 24 25 24 23 23 22 21 21 21 21 21 21 21 21 21 21 21
9 10 11 12 12 13 14 15 16 17 18 19 21 22 23 24 23 22 21 20 19 18 18 19 20 20 21 21 21 20 19 19 19 19 19 19 19 19 19 19 18 18
7 8 8 9 10 10 11 12 13 14 14 16 17 19 20 21 21 22 21 20 18 17 16 15 15 15 16 16 16 17 16 16 15 16 16 16 16 16 16 16 16 16
5 5 6 6 7 8 9 9 9 10 11 12 13 15 16 17 18 19 19 19 19 18 16 15 14 12 12 12 12 13 14 13 13 13 14 14 14 14 14 13 13 14
2 2 3 4 4 5 6 7 7 7 8 9 10 11 12 14 15 16 17 17 17 17 16 16 15 14 13 12 12 13 13 13 12 12 12 13 13 12 12 12 12 12
3 2 1 1 2 3 3 4 4 5 5 5 6 7 8 9 11 12 13 14 14 14 14 14 14 14 14 14 14 14 14 14 13 11 11 11 11 11 10 10 10 10
6 5 4 4 3 2 2 2 2 2 2 2 3 3 4 5 6 8 9 10 11 12 12 12 12 11 12 13 14 14 15 14 14 12 10 9 8 8 7 7 7 7
9 8 7 7 6 6 5 4 3 3 2 1 1 1 1 2 2 3 4 6 7 8 9 10 11 10 9 10 11 12 13 14 14 13 12 10 7 6 5 5 4 4
13 12 11 10 9 9 9 8 7 5 5 4 3 2 2 1 1 2 1 1 3 4 5 7 9 10 9 8 8 9 10 10 11 12 12 11 9 8 6 6 5 4
16 15 15 13 12 12 12 11 10 9 7 6 6 5 4 4 4 4 3 3 2 1 1 3 5 7 9 8 7 7 7 8 8 10 10 10 9 8 8 8 7 6
19 18 18 17 16 16 15 14 13 12 10 9 8 8 8 7 7 6 6 6 5 4 3 2 1 2 5 7 6 5 5 6 6 7 8 8 8 8 8 8 8 8
21 21 21 20 20 20 19 17 15 14 13 12 11 11 11 11 11 10 9 9 8 7 6 5 4 3 3 4 5 5 4 3 2 3 3 4 5 5 5 6 7 7
23 23 22 21 22 23 22 21 19 18 17 16 15 14 14 14 13 12 12 11 11 10 9 8 7 5 4 4 4 3 3 4 4 4 4 3 1 1 2 3 4 4
23 23 23 23 23 24 25 25 25 23 22 21 17 15 17 17 16 14 13 13 13 13 12 10 9 8 7 6 5 4 3 4 5 7 7 6 5 4 3 3 4 3
25 23 23 24 24 25 26 28 29 28 27 25 22 19 20 21 21 19 17 15 14 14 15 14 13 10 9 8 8 8 7 5 5 6 8 8 8 8 7 7 8 6
27 27 27 27 26 27 29 29 28 27 27 27 29 29 28 25 24 24 23 20 17 16 16 17 17 14 11 10 11 11 10 8 8 8 8 8 8 9 9 10 10 10
31 32 32 30 29 29 30 32 30 27 26 28 31 34 35 31 26 25 25 24 21 19 18 18 18 17 16 15 15 15 14 12 11 11 10 10 10 10 11 11 12 13
34 35 33 32 32 32 31 32 32 31 30 30 30 31 32 32 29 26 27 27 26 24 21 20 20 20 21 22 22 21 19 18 16 16 14 13 13 13 13 13 14 14
36 36 34 32 33 35 34 33 34 34 34 34 34 33 32 31 30 29 30 31 32 30 27 24 23 22 22 24 26 26 26 24 22 21 19 18 17 18 17 16 16 16
36 36 35 32 32 34 35 35 35 35 36 38 38 39 37 34 32 31 33 35 36 36 34 29 26 24 24 25 26 27 28 27 26 26 25 23 22 21 21 21 19 18
38 37 34 31 32 34 35 37 37 36 38 40 41 41 41 39 37 35 37 38 39 40 37 33 29 28 27 26 25 25 27 27 27 28 29 28 27 26 25 24 23 21
39 38 36 34 36 38 39 39 38 37 39 42 42 43 43 43 42 40 39 40 42 43 40 35 34 33 31 29 27 27 28 29 29 30 31 32 32 30 29 28 26 24
41 41 42 40 39 40 41 42 40 40 42 44 44 45 46 46 46 45 43 43 44 46 44 40 39 39 37 35 32 30 31 32 33 33 33 33 32 31 30 29 27 26
46 47 47 45 41 41 43 44 44 42 42 44 46 46 46 47 47 47 47 46 45 46 47 47 45 45 44 42 39 36 35 36 37 37 35 33 32 32 31 29 29 29
51 52 52 49 46 45 45 44 44 42 40 41 43 43 43 45 46 47 48 48 48 49 50 51 49 48 47 46 45 42 39 39 40 41 39 36 35 36 37 35 34 33
Wind_Direction
80 76 73 72 72 72 74 76 78 79 78 76 74 73 72 73 76 80 83 86 86 86 87 88 89 89 88 88 89 91 92 92 93 94 95 96 96 97 97 96 94 91
82 80 78 75 72 72 72 74 76 78 79 79 78 76 75 74 75 77 81 84 86 86 88 89 89 89 87 85 84 85 87 88 90 91 93 94 96 96 96 95 94 92
81 79 79 78 75 72 71 72 74 76 78 79 79 79 78 77 76 76 78 81 84 86 87 89 90 89 86 83 80 80 81 83 86 89 91 93 94 95 94 94 93 92
86 79 76 77 77 76 71 70 72 73 76 78 79 80 80 79 78 77 76 76 79 83 86 89 90 89 85 79 74 74 76 80 85 89 93 94 95 95 94 93 93 92
92 85 78 72 72 75 75 72 71 72 74 76 79 81 81 79 78 78 78 77 76 77 80 84 87 86 81 75 68 67 72 80 88 92 95 97 99 99 98 97 96 93
120 92 76 71 63 62 68 72 74 73 71 71 75 80 82 81 79 77 76 76 76 76 76 77 80 81 79 76 73 71 73 77 84 92 96 96 97 98 99 98 97 95
211 236 296 16 49 44 43 54 68 76 76 73 73 75 79 82 81 79 77 74 74 74 73 74 77 80 80 79 77 76 75 75 78 85 94 96 94 92 92 91 91 91
226 234 255 273 289 307 330 350 4 35 71 86 81 68 67 71 77 80 80 77 73 69 67 67 69 75 82 83 82 81 80 78 78 80 86 92 92 89 87 87 87 86
234 234 240 253 268 278 277 279 286 296 305 283 181 133 66 46 44 59 74 78 74 67 61 55 52 56 68 78 82 84 84 82 81 82 84 86 88 87 85 85 84 82
239 242 244 247 254 264 269 270 272 273 282 285 263 228 213 232 283 306 334 38 60 57 54 47 40 39 42 53 67 74 77 78 78 80 82 83 81 78 74 71 74 77
246 251 255 257 257 257 259 262 265 266 269 280 282 274 258 248 244 248 256 259 264 304 32 36 30 29 29 29 38 54 60 63 67 72 75 76 75 71 66 63 63 64
251 252 254 258 259 258 259 260 263 267 270 274 282 289 289 278 262 248 247 248 246 246 241 239 295 9 17 17 18 22 35 44 50 59 65 66 64 60 57 58 58 55
250 253 253 253 255 257 259 262 266 270 274 277 280 285 289 289 281 268 258 254 251 247 245 244 244 263 330 360 7 3 1 2 6 32 43 48 53 48 42 47 50 48
248 254 257 256 256 257 259 260 263 266 269 273 275 276 279 281 280 274 267 263 260 255 250 250 253 259 277 306 331 345 338 315 306 318 332 336 345 359 4 22 30 35
245 253 259 260 260 260 262 263 262 260 260 261 264 270 273 271 269 268 266 263 262 261 258 253 252 254 264 279 289 285 286 298 305 318 326 323 313 310 307 310 321 347
242 249 254 259 263 266 267 267 264 261 260 261 264 272 276 271 265 263 263 260 256 258 262 262 258 255 259 271 277 271 272 283 294 310 327 327 319 320 317 305 303 307
242 245 249 255 264 269 269 268 267 264 263 267 272 273 271 268 264 261 260 258 252 248 253 259 261 260 263 270 274 272 275 283 281 285 306 316 316 320 320 311 308 307
243 246 249 253 261 267 267 265 264 262 261 265 270 269 265 262 261 261 260 260 257 253 251 252 256 260 264 268 271 273 275 278 277 275 285 296 301 306 310 310 309 308
246 248 250 254 260 265 266 262 259 256 256 258 262 265 264 259 258 262 267 268 266 263 258 254 256 261 265 267 267 267 268 270 272 273 275 280 284 289 295 298 302 304
248 250 254 261 267 268 265 262 257 253 252 254 257 261 262 260 256 259 264 267 266 264 261 256 256 260 265 268 269 267 265 265 267 268 269 271 275 280 284 288 292 297
247 250 257 265 272 270 265 262 259 253 250 251 254 257 257 255 252 251 254 258 261 262 260 256 255 257 261 264 268 270 268 267 268 269 268 267 269 272 276 280 287 292
243 247 252 257 262 262 260 259 259 256 251 249 250 254 256 253 248 246 248 253 256 257 255 253 255 259 262 263 264 267 268 269 270 270 269 267 266 267 270 274 281 286
237 239 243 246 249 251 253 254 255 255 254 252 250 251 254 253 250 248 247 249 252 252 251 252 256 261 264 264 263 263 263 266 269 269 271 270 265 263 266 271 275 279
233 235 239 242 244 244 246 249 251 251 255 258 255 253 253 253 253 253 251 249 249 248 247 250 256 260 262 263 263 261 260 263 267 267 270 271 265 261 264 269 271 275
231 233 236 237 239 238 239 246 251 252 254 257 256 253 253 252 252 253 253 250 247 246 246 249 253 258 260 261 261 261 258 259 261 263 264 263 259 257 260 267 271 274
229 232 234 234 235 234 234 241 249 250 248 250 250 247 247 247 248 250 251 250 247 245 246 247 250 255 257 258 258 259 257 256 256 257 257 257 255 255 259 267 271 270